Regional Weather Roundup
Issued by NWS

Home | Current Version | Previous Version | Graphics & Text | Print | Product List | Glossary On
Versions: 1 2 3 4 5 6 7 8 9 10 11 12 13 14 15 16 17 18 19 20 21 22 23 24 25 26 27 28 29 30 31 32 33 34 35 36 37 38 39 40 41 42 43 44 45 46 47 48 49 50
414
ASUS43 KBIS 021010
RWRND

NORTH DAKOTA REGIONAL WEATHER ROUNDUP
NATIONAL WEATHER SERVICE BISMARCK ND
500 AM CDT MON MAY 02 2016

NOTE: "FAIR" INDICATES FEW OR NO CLOUDS BELOW 12,000 FEET WITH NO
SIGNIFICANT WEATHER AND/OR OBSTRUCTIONS TO VISIBILITY.


NDZ001>003-009>011-017-021100-
NORTHWEST NORTH DAKOTA

CITY           SKY/WX    TMP DP  RH WIND       PRES   REMARKS
WILLISTON      CLOUDY    52  34  50 W16       30.05F
MINOT          LGT RAIN  55  36  48 S8        29.98F
MINOT AFB      CLOUDY    51  37  58 SW10      29.97F
$$

NDZ018>021-031>035-040>046-021100-
SOUTHWEST NORTH DAKOTA

CITY           SKY/WX    TMP DP  RH WIND       PRES   REMARKS
BISMARCK       CLOUDY    46  33  60 SW3       30.08F
DICKINSON      MOCLDY    43  33  68 W10       30.09F
GARRISON         N/A     51  32  48 W14       30.02F
HETTINGER ARPT CLOUDY    38  32  79 NW9       30.13F
$$

NDZ004>008-012>016-024-026-027-054-021100-
NORTHEAST NORTH DAKOTA

CITY           SKY/WX    TMP DP  RH WIND       PRES   REMARKS
GRAND FORKS    CLOUDY    42  31  64 S5        30.05F
GRND FRKS AFB  MOCLDY    43  27  53 SW5       30.05F
DEVILS LAKE    CLOUDY    51  36  56 SW8       30.05F
$$

NDZ022-023-025-028>030-036>039-047>053-021100-
SOUTHEAST NORTH DAKOTA

CITY           SKY/WX    TMP DP  RH WIND       PRES   REMARKS
FARGO          MOCLDY    45  31  58 CALM      30.07F
JAMESTOWN      CLOUDY    44  32  62 W3        30.07F
$$





USA.gov is the U.S. government's official web portal to all federal, state and local government web resources and services.